Location: Unspecified
(0.0000°N, 0.0000°E)
Time: 06:00:19
(UTC+02:00)

CZ-4B DEB - Visible Passes

Search period start: 01 October 2014 00:00
Search period end: 11 October 2014 00:00
Orbit: 520 x 532 km, 97.5° (Epoch: 30 September)

Date Brightness Start Highest point End Pass type
(mag) Time Alt. Az. Time Alt. Az. Time Alt. Az.
01 Oct 5.1 21:11:41 10° SSW 21:15:05 31° WSW 21:18:30 10° NW visible
02 Oct 4.2 20:59:46 10° S 21:03:28 49° W 21:07:09 10° NNW visible
03 Oct 3.3 20:47:58 10° S 20:51:47 79° WSW 20:55:36 10° NNW visible
04 Oct 3.1 20:36:17 10° SSE 20:40:04 65° E 20:43:51 10° N visible
05 Oct 3.6 20:24:42 10° SSE 20:28:18 40° E 20:31:54 10° N visible
06 Oct 4.2 20:13:16 10° SE 20:16:30 26° ENE 20:19:43 10° NNE visible
07 Oct 6.5 21:36:38 10° SW 21:38:37 14° WSW 21:40:36 10° WNW visible
08 Oct 5.9 21:23:49 10° SSW 21:26:43 21° WSW 21:29:37 10° NW visible
09 Oct 5.1 21:11:22 10° SSW 21:14:47 31° WSW 21:18:12 10° NW visible
10 Oct 4.1 20:59:05 10° S 21:02:48 50° WSW 21:06:30 10° NNW visible
